Regional Weather Roundup
Issued by NWS

Home | Current Version | Previous Version | Graphics & Text | Print | Product List | Glossary On
Versions: 1 2 3 4 5 6 7 8 9 10 11 12 13 14 15 16 17 18 19 20 21 22 23 24 25 26 27 28 29 30 31 32 33 34 35 36 37 38 39 40 41 42 43 44 45 46 47 48 49 50
000
ASUS43 KOAX 280402
RWRNE

WEATHER ROUNDUP FOR NEBRASKA
NATIONAL WEATHER SERVICE OMAHA NE
1100 PM CDT MON JUL 27 2015

NOTES: SATELLITE DATA IS BEING USED TO AUGMENT CLOUD COVER ABOVE
       12000 FEET.
       "FAIR" INDICATES FEW OR NO CLOUDS BELOW 12,000 FEET WITH NO
       SIGNIFICANT WEATHER AND/OR OBSTRUCTIONS TO VISIBILITY.

  * THESE STATIONS DO NOT REPORT WEATHER SUCH AS RAIN...SNOW OR FOG.

NEZ001>004-019>022-054>056-280500-
NEBRASKA PANHANDLE

CITY           SKY/WX    TMP DP  RH WIND       PRES   REMARKS
SCOTTSBLUFF    PTCLDY    70  61  73 CALM      29.78R
ALLIANCE       CLOUDY    68  59  73 E22       29.78R
CHADRON        PTCLDY    67  59  75 S8        29.74F
KIMBALL        LGT RAIN  71  52  51 SW9G21    29.84F
SIDNEY         PTCLDY    85  60  42 VRB5G22   29.82R
$$

NEZ057>060-069>072-079>082-280500-
SOUTHWEST NEBRASKA

CITY           SKY/WX    TMP DP  RH WIND       PRES   REMARKS
NORTH PLATTE   PTCLDY    81  70  69 SE13      29.73F
IMPERIAL       CLEAR     82  68  62 SE14      29.74S
MCCOOK         CLEAR     83  68  60 S17       29.74R
$$

NEZ005>010-023>029-035>040-094-280500-
NORTH CENTRAL NEBRASKA

CITY           SKY/WX    TMP DP  RH WIND       PRES   REMARKS
VALENTINE      MOCLDY    83  71  67 S20G26    29.69F
AINSWORTH      PTCLDY    82  72  69 SE20      29.72F
BROKEN BOW     CLEAR     79  72  79 SE8       29.76F
O`NEILL        PTCLDY    81  73  76 SE13      29.76F
ORD            PTCLDY    81  74  79 SE17G23   29.75S
$$

NEZ041-046>049-061>064-073>077-083>087-280500-
SOUTH CENTRAL NEBRASKA

CITY           SKY/WX    TMP DP  RH WIND       PRES   REMARKS
GRAND ISLAND   CLEAR     80  74  81 SE12      29.80R
AURORA         PTCLDY    80  77  90 SE10      29.81R
HASTINGS       CLEAR     82  68  62 S14       29.80S
KEARNEY *      CLEAR     81  66  61 SE14G20   29.79S
$$

NEZ011>018-030>034-042>045-280500-
NORTHEAST NEBRASKA

CITY           SKY/WX    TMP DP  RH WIND       PRES   REMARKS
NORFOLK        CLOUDY    81  77  88 SE15      29.79S
BLAIR          CLEAR     75  69  80 SE10      29.85S
COLUMBUS *     PTCLDY    81  73  78 SE9G16    29.81R
FREMONT        CLEAR     78  71  78 SE14G20   29.83S
TEKAMAH        PTCLDY    76  71  85 SE10      29.83S
$$

NEZ050>053-065>068-078-088>093-280500-
SOUTHEAST NEBRASKA

CITY           SKY/WX    TMP DP  RH WIND       PRES   REMARKS
LINCOLN        CLEAR     82  77  84 SE16G24   29.83R HX  90
OMAHA EPPLEY   PTCLDY    78  71  79 SE18      29.85S
FALLS CITY     CLEAR     77  74  90 SE12      29.87R
$$

NEZ044-045-051>053-067-280500-
OMAHA AREA

CITY           SKY/WX    TMP DP  RH WIND       PRES   REMARKS
OMAHA EPPLEY   PTCLDY    78  71  79 SE18      29.85S
BLAIR          CLEAR     75  69  80 SE10      29.85S
FREMONT        CLEAR     78  71  78 SE14G20   29.83S
OFFUTT AFB     PTCLDY    76  71  84 SE13      29.84S
$$



USA.gov is the U.S. government's official web portal to all federal, state and local government web resources and services.